Regional Weather Roundup
Issued by NWS

Home | Current Version | Previous Version | Graphics & Text | Print | Product List | Glossary On
Versions: 1 2 3 4 5 6 7 8 9 10 11 12 13 14 15 16 17 18 19 20 21 22 23 24 25 26 27 28 29 30 31 32 33 34 35 36 37 38 39 40 41 42 43 44 45 46 47 48 49 50
000
ASUS43 KBIS 221802
RWRND

NORTH DAKOTA REGIONAL WEATHER ROUNDUP
NATIONAL WEATHER SERVICE BISMARCK ND
100 PM CDT FRI JUL 22 2016

NOTE: "FAIR" INDICATES FEW OR NO CLOUDS BELOW 12,000 FEET WITH NO
SIGNIFICANT WEATHER AND/OR OBSTRUCTIONS TO VISIBILITY.


NDZ001>003-009>011-017-221900-
NORTHWEST NORTH DAKOTA

CITY           SKY/WX    TMP DP  RH WIND       PRES   REMARKS
WILLISTON      CLOUDY    88  52  29 SE15      30.04S
6HR MIN TEMP:  63; 6HR MAX TEMP:  89;

MINOT          CLOUDY    86  59  39 N9        30.06F
MINOT AFB      CLOUDY    82  59  45 E10       30.04F
$$

NDZ018>021-031>035-040>046-221900-
SOUTHWEST NORTH DAKOTA

CITY           SKY/WX    TMP DP  RH WIND       PRES   REMARKS
BISMARCK       CLOUDY    86  75  69 SE8       30.00S HX  95
6HR MIN TEMP:  68; 6HR MAX TEMP:  87; 6HR PCP: TRACE;

DICKINSON      MOSUNNY   81  71  71 NE15      30.04F
GARRISON         N/A     84  60  44 E13       30.06R
6HR MIN TEMP:  65; 6HR MAX TEMP:  84;

HETTINGER ARPT SUNNY     86  69  56 E20G26    30.04S HX  90
$$

NDZ004>008-012>016-024-026-027-054-221900-
NORTHEAST NORTH DAKOTA

CITY           SKY/WX    TMP DP  RH WIND       PRES   REMARKS
GRAND FORKS    MOSUNNY   85  63  47 N7        30.03S
GRND FRKS AFB  SUNNY     84  60  44 N7        30.05R
DEVILS LAKE    CLOUDY    81  60  48 N6        30.08F
$$

NDZ022-023-025-028>030-036>039-047>053-221900-
SOUTHEAST NORTH DAKOTA

CITY           SKY/WX    TMP DP  RH WIND       PRES   REMARKS
FARGO          SUNNY     90  66  45 CALM      30.00S HX  92
6HR MIN TEMP:  67; 6HR MAX TEMP:  90;

JAMESTOWN      CLOUDY    87  71  58 E5        30.01F HX  93
$$





USA.gov is the U.S. government's official web portal to all federal, state and local government web resources and services.